Time,TemperatureF,DewpointF,PressureIn,WindDirection,WindDirectionDegrees,WindSpeedMPH,WindSpeedGustMPH,Humidity,HourlyPrecipIn,Conditions,Clouds,dailyrainin,SoftwareType,DateUTC
2013-01-21 00:03:00,9.7,7.3,30.39,SSW,202,0.0,0.0,90,0.00,,,0.00,WUHU21623XXSP,2013-01-21 08:03:00,
2013-01-21 00:13:00,9.1,6.7,30.39,SSW,202,0.0,0.0,90,0.00,,,0.00,WUHU21623XXSP,2013-01-21 08:13:00,
2013-01-21 00:18:00,9.7,7.3,30.38,SSW,202,0.0,0.0,90,0.00,,,0.00,WUHU21623XXSP,2013-01-21 08:18:00,
2013-01-21 00:23:00,9.3,6.9,30.39,SSW,202,0.0,0.0,90,0.00,,,0.00,WUHU21623XXSP,2013-01-21 08:23:00,
2013-01-21 00:28:00,9.1,6.7,30.38,SSW,202,0.0,0.0,90,0.00,,,0.00,WUHU21623XXSP,2013-01-21 08:28:00,
2013-01-21 00:33:00,9.1,6.7,30.38,SSW,202,0.0,0.0,90,0.00,,,0.00,WUHU21623XXSP,2013-01-21 08:33:00,
2013-01-21 00:38:00,9.1,6.7,30.38,SSW,202,0.0,0.0,90,0.00,,,0.00,WUHU21623XXSP,2013-01-21 08:38:00,
2013-01-21 00:43:00,9.1,6.7,30.38,SSW,202,0.0,0.0,90,0.00,,,0.00,WUHU21623XXSP,2013-01-21 08:43:00,
2013-01-21 00:48:00,9.1,6.7,30.38,SSW,202,0.0,0.0,90,0.00,,,0.00,WUHU21623XXSP,2013-01-21 08:48:00,
2013-01-21 00:53:00,9.3,6.9,30.38,SSW,202,0.0,0.0,90,0.00,,,0.00,WUHU21623XXSP,2013-01-21 08:53:00,
2013-01-21 00:58:00,9.7,7.3,30.38,SSW,202,0.0,0.0,90,0.00,,,0.00,WUHU21623XXSP,2013-01-21 08:58:00,
2013-01-21 01:03:00,9.7,7.3,30.38,SSW,202,0.0,0.0,90,0.00,,,0.00,WUHU21623XXSP,2013-01-21 09:03:00,
2013-01-21 01:08:00,9.3,6.9,30.38,SSW,202,0.0,0.0,90,0.00,,,0.00,WUHU21623XXSP,2013-01-21 09:08:00,
2013-01-21 01:13:00,9.0,6.6,30.38,SSW,202,0.0,0.0,90,0.00,,,0.00,WUHU21623XXSP,2013-01-21 09:13:00,
2013-01-21 01:18:00,8.8,6.1,30.38,SSW,202,0.0,0.0,89,0.00,,,0.00,WUHU21623XXSP,2013-01-21 09:18:00,
2013-01-21 01:23:00,8.4,5.7,30.38,SSW,202,0.0,0.0,89,0.00,,,0.00,WUHU21623XXSP,2013-01-21 09:23:00,
2013-01-21 01:28:00,7.5,4.8,30.38,SSW,202,0.0,0.0,89,0.00,,,0.00,WUHU21623XXSP,2013-01-21 09:28:00,
2013-01-21 01:33:00,7.5,4.8,30.38,SSW,202,0.0,0.0,89,0.00,,,0.00,WUHU21623XXSP,2013-01-21 09:33:00,
2013-01-21 01:38:00,7.3,4.6,30.38,SSW,202,0.0,0.0,89,0.00,,,0.00,WUHU21623XXSP,2013-01-21 09:38:00,
2013-01-21 01:43:00,7.5,4.8,30.38,SSW,202,0.0,0.0,89,0.00,,,0.00,WUHU21623XXSP,2013-01-21 09:43:00,
2013-01-21 01:48:00,7.7,5.3,30.38,SSW,202,0.0,0.0,90,0.00,,,0.00,WUHU21623XXSP,2013-01-21 09:48:00,
2013-01-21 01:53:00,7.9,5.5,30.38,SSW,202,0.0,0.0,90,0.00,,,0.00,WUHU21623XXSP,2013-01-21 09:53:00,
2013-01-21 01:58:00,7.9,5.2,30.38,SSW,202,0.0,0.0,89,0.00,,,0.00,WUHU21623XXSP,2013-01-21 09:58:00,
2013-01-21 02:03:00,7.7,5.0,30.38,SSW,202,0.0,0.0,89,0.00,,,0.00,WUHU21623XXSP,2013-01-21 10:03:00,
2013-01-21 02:08:00,7.7,5.0,30.39,SSW,202,0.0,0.0,89,0.00,,,0.00,WUHU21623XXSP,2013-01-21 10:08:00,
2013-01-21 02:13:00,7.3,4.6,30.39,SSW,202,0.0,0.0,89,0.00,,,0.00,WUHU21623XXSP,2013-01-21 10:13:00,
2013-01-21 02:18:00,7.3,4.6,30.39,SSW,202,0.0,0.0,89,0.00,,,0.00,WUHU21623XXSP,2013-01-21 10:18:00,
2013-01-21 02:23:00,7.2,4.5,30.39,SSW,202,0.0,0.0,89,0.00,,,0.00,WUHU21623XXSP,2013-01-21 10:23:00,
2013-01-21 02:28:00,7.0,4.4,30.39,SSW,202,0.0,0.0,89,0.00,,,0.00,WUHU21623XXSP,2013-01-21 10:28:00,
2013-01-21 02:33:00,7.0,4.4,30.39,SSW,202,0.0,0.0,89,0.00,,,0.00,WUHU21623XXSP,2013-01-21 10:33:00,
2013-01-21 02:38:00,7.0,4.4,30.38,SSW,202,0.0,0.0,89,0.00,,,0.00,WUHU21623XXSP,2013-01-21 10:38:00,
2013-01-21 02:43:00,6.6,4.0,30.38,SSW,202,0.0,0.0,89,0.00,,,0.00,WUHU21623XXSP,2013-01-21 10:43:00,
2013-01-21 02:48:00,6.6,4.0,30.38,SSW,202,0.0,0.0,89,0.00,,,0.00,WUHU21623XXSP,2013-01-21 10:48:00,
2013-01-21 02:53:00,6.6,4.0,30.38,SSW,202,0.0,0.0,89,0.00,,,0.00,WUHU21623XXSP,2013-01-21 10:53:00,
2013-01-21 02:58:00,6.6,4.0,30.38,SSW,202,0.0,0.0,89,0.00,,,0.00,WUHU21623XXSP,2013-01-21 10:58:00,
2013-01-21 03:03:00,6.6,4.0,30.38,SSW,202,0.0,0.0,89,0.00,,,0.00,WUHU21623XXSP,2013-01-21 11:03:00,
2013-01-21 03:08:00,6.4,3.8,30.38,SSW,202,0.0,0.0,89,0.00,,,0.00,WUHU21623XXSP,2013-01-21 11:08:00,
2013-01-21 03:13:00,6.6,4.2,30.37,SSW,202,0.0,0.0,90,0.00,,,0.00,WUHU21623XXSP,2013-01-21 11:13:00,
2013-01-21 03:18:00,7.0,4.6,30.37,SSW,202,0.0,0.0,90,0.00,,,0.00,WUHU21623XXSP,2013-01-21 11:18:00,
2013-01-21 03:23:00,7.0,4.6,30.37,SSW,202,0.0,0.0,90,0.00,,,0.00,WUHU21623XXSP,2013-01-21 11:23:00,
2013-01-21 03:28:00,7.0,4.6,30.38,SSW,202,0.0,0.0,90,0.00,,,0.00,WUHU21623XXSP,2013-01-21 11:28:00,
2013-01-21 03:33:00,7.0,4.6,30.37,SSW,202,0.0,0.0,90,0.00,,,0.00,WUHU21623XXSP,2013-01-21 11:33:00,
2013-01-21 03:38:00,7.0,4.6,30.37,SSW,202,0.0,0.0,90,0.00,,,0.00,WUHU21623XXSP,2013-01-21 11:38:00,
2013-01-21 03:43:00,6.4,4.0,30.37,SSW,202,0.0,0.0,90,0.00,,,0.00,WUHU21623XXSP,2013-01-21 11:43:00,
2013-01-21 03:48:00,6.1,3.7,30.37,SSW,202,0.0,0.0,90,0.00,,,0.00,WUHU21623XXSP,2013-01-21 11:48:00,
2013-01-21 03:53:00,6.1,3.5,30.37,SSW,202,0.0,0.0,89,0.00,,,0.00,WUHU21623XXSP,2013-01-21 11:53:00,
2013-01-21 03:58:00,6.1,3.5,30.37,SSW,202,0.0,0.0,89,0.00,,,0.00,WUHU21623XXSP,2013-01-21 11:58:00,
2013-01-21 04:03:00,5.7,3.1,30.37,SSW,202,0.0,0.0,89,0.00,,,0.00,WUHU21623XXSP,2013-01-21 12:03:00,
2013-01-21 04:08:00,5.5,2.9,30.37,SSW,202,0.0,0.0,89,0.00,,,0.00,WUHU21623XXSP,2013-01-21 12:08:00,
2013-01-21 04:13:00,5.5,2.9,30.36,SSW,202,0.0,0.0,89,0.00,,,0.00,WUHU21623XXSP,2013-01-21 12:13:00,
2013-01-21 04:18:00,5.5,2.9,30.36,SSW,202,0.0,0.0,89,0.00,,,0.00,WUHU21623XXSP,2013-01-21 12:18:00,
2013-01-21 04:23:00,5.5,2.9,30.36,SSW,202,0.0,0.0,89,0.00,,,0.00,WUHU21623XXSP,2013-01-21 12:23:00,
2013-01-21 04:28:00,5.2,2.6,30.37,SSW,202,0.0,0.0,89,0.00,,,0.00,WUHU21623XXSP,2013-01-21 12:28:00,
2013-01-21 04:33:00,5.2,2.6,30.37,SSW,202,0.0,0.0,89,0.00,,,0.00,WUHU21623XXSP,2013-01-21 12:33:00,
2013-01-21 04:38:00,5.4,2.8,30.36,SSW,202,0.0,0.0,89,0.00,,,0.00,WUHU21623XXSP,2013-01-21 12:38:00,
2013-01-21 04:43:00,5.5,2.9,30.36,SSW,202,0.0,0.0,89,0.00,,,0.00,WUHU21623XXSP,2013-01-21 12:43:00,
2013-01-21 04:48:00,5.2,2.6,30.36,SSW,202,0.0,0.0,89,0.00,,,0.00,WUHU21623XXSP,2013-01-21 12:48:00,
2013-01-21 04:53:00,5.0,2.4,30.36,SSW,202,0.0,0.0,89,0.00,,,0.00,WUHU21623XXSP,2013-01-21 12:53:00,
2013-01-21 04:58:00,4.8,2.2,30.36,SSW,202,0.0,0.0,89,0.00,,,0.00,WUHU21623XXSP,2013-01-21 12:58:00,
2013-01-21 05:03:00,5.0,2.6,30.36,SSW,202,0.0,0.0,90,0.00,,,0.00,WUHU21623XXSP,2013-01-21 13:03:00,
2013-01-21 05:08:00,5.2,2.8,30.35,SSW,202,0.0,0.0,90,0.00,,,0.00,WUHU21623XXSP,2013-01-21 13:08:00,
2013-01-21 05:13:00,5.0,2.4,30.35,SSW,202,0.0,0.0,89,0.00,,,0.00,WUHU21623XXSP,2013-01-21 13:13:00,
2013-01-21 05:18:00,4.8,2.4,30.35,SSW,202,0.0,0.0,90,0.00,,,0.00,WUHU21623XXSP,2013-01-21 13:18:00,
2013-01-21 05:23:00,4.8,2.2,30.35,SSW,202,0.0,0.0,89,0.00,,,0.00,WUHU21623XXSP,2013-01-21 13:23:00,
2013-01-21 05:28:00,4.6,2.2,30.35,SSW,202,0.0,0.0,90,0.00,,,0.00,WUHU21623XXSP,2013-01-21 13:28:00,
2013-01-21 05:33:00,4.8,2.4,30.35,SSW,202,0.0,0.0,90,0.00,,,0.00,WUHU21623XXSP,2013-01-21 13:33:00,
2013-01-21 05:38:00,4.8,2.4,30.35,SSW,202,0.0,0.0,90,0.00,,,0.00,WUHU21623XXSP,2013-01-21 13:38:00,
2013-01-21 05:43:00,4.8,2.4,30.36,SSW,202,0.0,0.0,90,0.00,,,0.00,WUHU21623XXSP,2013-01-21 13:43:00,
2013-01-21 05:48:00,5.0,2.6,30.36,SSW,202,0.0,0.0,90,0.00,,,0.00,WUHU21623XXSP,2013-01-21 13:48:00,
2013-01-21 05:53:00,5.2,2.8,30.36,SSW,202,0.0,0.0,90,0.00,,,0.00,WUHU21623XXSP,2013-01-21 13:53:00,
2013-01-21 05:58:00,5.5,3.1,30.36,SSW,202,0.0,0.0,90,0.00,,,0.00,WUHU21623XXSP,2013-01-21 13:58:00,
2013-01-21 06:03:00,5.7,3.3,30.36,SSW,202,0.0,0.0,90,0.00,,,0.00,WUHU21623XXSP,2013-01-21 14:03:00,
2013-01-21 06:08:00,6.1,3.7,30.36,SSW,202,0.0,0.0,90,0.00,,,0.00,WUHU21623XXSP,2013-01-21 14:08:00,
2013-01-21 06:13:00,6.1,3.9,30.35,SSW,202,0.0,0.0,91,0.00,,,0.00,WUHU21623XXSP,2013-01-21 14:13:00,
2013-01-21 06:18:00,6.4,4.2,30.35,SSW,202,0.0,0.0,91,0.00,,,0.00,WUHU21623XXSP,2013-01-21 14:18:00,
2013-01-21 06:23:00,6.4,4.2,30.35,SSW,202,0.0,0.0,91,0.00,,,0.00,WUHU21623XXSP,2013-01-21 14:23:00,
2013-01-21 06:28:00,6.4,4.2,30.35,SSW,202,0.0,0.0,91,0.00,,,0.00,WUHU21623XXSP,2013-01-21 14:28:00,
2013-01-21 06:33:00,6.4,4.2,30.35,SSW,202,0.0,0.0,91,0.00,,,0.00,WUHU21623XXSP,2013-01-21 14:33:00,
2013-01-21 06:38:00,6.4,4.2,30.35,SSW,202,0.0,0.0,91,0.00,,,0.00,WUHU21623XXSP,2013-01-21 14:38:00,
2013-01-21 06:43:00,6.6,4.2,30.36,SSW,202,0.0,0.0,90,0.00,,,0.00,WUHU21623XXSP,2013-01-21 14:43:00,
2013-01-21 06:48:00,6.6,4.2,30.36,SSW,202,0.0,0.0,90,0.00,,,0.00,WUHU21623XXSP,2013-01-21 14:48:00,
2013-01-21 06:53:00,6.4,4.2,30.35,SSW,202,0.0,0.0,91,0.00,,,0.00,WUHU21623XXSP,2013-01-21 14:53:00,
2013-01-21 06:58:00,6.6,4.2,30.35,SSW,202,0.0,0.0,90,0.00,,,0.00,WUHU21623XXSP,2013-01-21 14:58:00,
2013-01-21 07:03:00,6.4,4.2,30.35,SSW,202,0.0,0.0,91,0.00,,,0.00,WUHU21623XXSP,2013-01-21 15:03:00,
2013-01-21 07:08:00,6.4,4.0,30.35,SSW,202,0.0,0.0,90,0.00,,,0.00,WUHU21623XXSP,2013-01-21 15:08:00,
2013-01-21 07:13:00,6.4,4.0,30.35,SSW,202,0.0,0.0,90,0.00,,,0.00,WUHU21623XXSP,2013-01-21 15:13:00,
2013-01-21 07:18:00,6.4,4.0,30.35,SSW,202,0.0,0.0,90,0.00,,,0.00,WUHU21623XXSP,2013-01-21 15:18:00,
2013-01-21 07:23:00,6.4,4.0,30.35,SSW,202,0.0,0.0,90,0.00,,,0.00,WUHU21623XXSP,2013-01-21 15:23:00,
2013-01-21 07:28:00,6.6,4.2,30.35,SSW,202,0.0,0.0,90,0.00,,,0.00,WUHU21623XXSP,2013-01-21 15:28:00,
2013-01-21 07:33:00,6.6,4.4,30.35,SSW,202,0.0,0.0,91,0.00,,,0.00,WUHU21623XXSP,2013-01-21 15:33:00,
2013-01-21 07:38:00,6.6,4.4,30.35,SSW,202,0.0,0.0,91,0.00,,,0.00,WUHU21623XXSP,2013-01-21 15:38:00,
2013-01-21 07:43:00,6.6,4.4,30.36,SSW,202,0.0,0.0,91,0.00,,,0.00,WUHU21623XXSP,2013-01-21 15:43:00,
2013-01-21 07:48:00,6.6,4.4,30.35,SSW,202,0.0,0.0,91,0.00,,,0.00,WUHU21623XXSP,2013-01-21 15:48:00,
2013-01-21 07:53:00,7.0,4.8,30.36,SSW,202,0.0,0.0,91,0.00,,,0.00,WUHU21623XXSP,2013-01-21 15:53:00,
2013-01-21 07:58:00,7.0,4.8,30.36,SSW,202,0.0,0.0,91,0.00,,,0.00,WUHU21623XXSP,2013-01-21 15:58:00,
2013-01-21 08:03:00,7.0,4.8,30.36,SSW,202,0.0,0.0,91,0.00,,,0.00,WUHU21623XXSP,2013-01-21 16:03:00,
2013-01-21 08:04:00,7.0,4.8,30.36,SSW,202,0.0,0.0,91,0.00,,,0.00,WUHU21623XXSP,2013-01-21 16:04:00,
2013-01-21 08:08:00,7.3,5.1,30.36,SSW,202,0.0,0.0,91,0.00,,,0.00,WUHU21623XXSP,2013-01-21 16:08:00,
2013-01-21 08:15:00,7.5,5.3,30.36,SSW,202,0.0,0.0,91,0.00,,,0.00,WUHU21623XXSP,2013-01-21 16:15:00,
2013-01-21 08:21:00,8.2,6.0,30.36,SSW,202,0.0,0.0,91,0.00,,,0.00,WUHU21623XXSP,2013-01-21 16:21:00,
2013-01-21 08:35:00,8.8,6.9,30.36,SSW,202,0.0,0.0,92,0.00,,,0.00,WUHU21623XXSP,2013-01-21 16:35:00,
2013-01-21 08:40:00,10.0,8.0,30.36,SSW,202,0.0,0.0,92,0.00,,,0.00,WUHU21623XXSP,2013-01-21 16:40:00,
2013-01-21 08:45:00,10.6,8.6,30.36,SSW,202,0.0,0.0,92,0.00,,,0.00,WUHU21623XXSP,2013-01-21 16:45:00,
2013-01-21 08:50:00,11.3,9.6,30.36,SSW,202,0.0,0.0,93,0.00,,,0.00,WUHU21623XXSP,2013-01-21 16:50:00,
2013-01-21 08:55:00,12.0,10.3,30.36,SSW,202,0.0,0.0,93,0.00,,,0.00,WUHU21623XXSP,2013-01-21 16:55:00,
2013-01-21 09:00:00,13.3,11.6,30.36,SSW,202,0.0,0.0,93,0.00,,,0.00,WUHU21623XXSP,2013-01-21 17:00:00,
2013-01-21 09:05:00,13.8,12.3,30.36,SSW,202,0.0,0.0,94,0.00,,,0.00,WUHU21623XXSP,2013-01-21 17:05:00,
2013-01-21 09:10:00,14.5,13.0,30.36,SSW,202,0.0,0.0,94,0.00,,,0.00,WUHU21623XXSP,2013-01-21 17:10:00,
2013-01-21 09:15:00,15.6,14.1,30.36,SSW,202,0.0,0.0,94,0.00,,,0.00,WUHU21623XXSP,2013-01-21 17:15:00,
2013-01-21 09:20:00,16.3,15.0,30.36,SSW,202,0.0,0.0,95,0.00,,,0.00,WUHU21623XXSP,2013-01-21 17:20:00,
2013-01-21 09:25:00,16.5,15.2,30.36,SSW,202,0.0,0.0,95,0.00,,,0.00,WUHU21623XXSP,2013-01-21 17:25:00,
2013-01-21 09:30:00,16.3,14.8,30.35,SSW,202,0.0,0.0,94,0.00,,,0.00,WUHU21623XXSP,2013-01-21 17:30:00,
2013-01-21 09:35:00,16.0,14.2,30.35,WSW,247,0.0,0.0,93,0.00,,,0.00,WUHU21623XXSP,2013-01-21 17:35:00,
2013-01-21 09:40:00,15.6,13.8,30.35,WSW,247,0.0,0.0,93,0.00,,,0.00,WUHU21623XXSP,2013-01-21 17:40:00,
2013-01-21 09:45:00,16.0,14.2,30.35,WSW,247,0.0,0.0,93,0.00,,,0.00,WUHU21623XXSP,2013-01-21 17:45:00,
2013-01-21 09:50:00,16.0,14.2,30.36,WSW,247,0.0,0.0,93,0.00,,,0.00,WUHU21623XXSP,2013-01-21 17:50:00,
2013-01-21 09:55:00,15.6,13.6,30.36,WSW,247,0.0,0.0,92,0.00,,,0.00,WUHU21623XXSP,2013-01-21 17:55:00,
2013-01-21 10:00:00,15.1,13.1,30.36,WSW,247,0.0,0.0,92,0.00,,,0.00,WUHU21623XXSP,2013-01-21 18:00:00,
2013-01-21 10:05:00,15.3,13.3,30.36,WSW,247,0.0,0.0,92,0.00,,,0.00,WUHU21623XXSP,2013-01-21 18:05:00,
2013-01-21 10:10:00,15.6,13.8,30.36,WSW,247,0.0,0.0,93,0.00,,,0.00,WUHU21623XXSP,2013-01-21 18:10:00,
2013-01-21 10:15:00,16.3,14.5,30.36,WSW,247,0.0,0.0,93,0.00,,,0.00,WUHU21623XXSP,2013-01-21 18:15:00,
2013-01-21 10:20:00,16.9,15.1,30.36,WSW,247,0.0,0.0,93,0.00,,,0.00,WUHU21623XXSP,2013-01-21 18:20:00,
2013-01-21 10:25:00,17.4,15.6,30.36,WSW,247,0.0,0.0,93,0.00,,,0.00,WUHU21623XXSP,2013-01-21 18:25:00,
2013-01-21 10:30:00,18.3,16.8,30.36,WSW,247,0.0,0.0,94,0.00,,,0.00,WUHU21623XXSP,2013-01-21 18:30:00,
2013-01-21 10:35:00,18.9,17.4,30.36,WSW,247,0.0,0.0,94,0.00,,,0.00,WUHU21623XXSP,2013-01-21 18:35:00,
2013-01-21 10:40:00,19.6,18.1,30.35,WSW,247,0.0,0.0,94,0.00,,,0.00,WUHU21623XXSP,2013-01-21 18:40:00,
2013-01-21 10:45:00,21.7,20.4,30.35,WSW,247,0.0,0.0,95,0.00,,,0.00,WUHU21623XXSP,2013-01-21 18:45:00,
2013-01-21 10:50:00,23.5,22.4,30.35,WSW,247,0.0,0.0,96,0.00,,,0.00,WUHU21623XXSP,2013-01-21 18:50:00,
2013-01-21 10:55:00,24.6,23.3,30.35,WSW,247,0.0,0.0,95,0.00,,,0.00,WUHU21623XXSP,2013-01-21 18:55:00,
2013-01-21 11:00:00,25.5,23.9,30.35,WSW,247,0.0,0.0,94,0.00,,,0.00,WUHU21623XXSP,2013-01-21 19:00:00,
2013-01-21 11:05:00,27.1,25.5,30.35,WSW,247,0.0,0.0,94,0.00,,,0.00,WUHU21623XXSP,2013-01-21 19:05:00,
2013-01-21 11:10:00,28.8,27.2,30.35,WSW,247,0.0,0.0,94,0.00,,,0.00,WUHU21623XXSP,2013-01-21 19:10:00,
2013-01-21 11:15:00,31.1,28.7,30.35,WSW,247,0.0,0.0,91,0.00,,,0.00,WUHU21623XXSP,2013-01-21 19:15:00,
2013-01-21 11:20:00,30.6,27.1,30.35,WSW,247,0.0,0.0,87,0.00,,,0.00,WUHU21623XXSP,2013-01-21 19:20:00,
2013-01-21 11:25:00,30.4,26.3,30.34,WSW,247,0.0,0.0,85,0.00,,,0.00,WUHU21623XXSP,2013-01-21 19:25:00,
2013-01-21 11:30:00,28.2,23.1,30.34,WSW,247,0.0,0.0,81,0.00,,,0.00,WUHU21623XXSP,2013-01-21 19:30:00,
2013-01-21 11:35:00,26.2,21.1,30.34,WSW,247,0.0,0.0,81,0.00,,,0.00,WUHU21623XXSP,2013-01-21 19:35:00,
2013-01-21 11:40:00,25.3,20.5,30.34,WSW,247,0.0,0.0,82,0.00,,,0.00,WUHU21623XXSP,2013-01-21 19:40:00,
2013-01-21 11:45:00,25.0,20.5,30.35,WSW,247,0.0,0.0,83,0.00,,,0.00,WUHU21623XXSP,2013-01-21 19:45:00,
2013-01-21 11:51:00,25.3,20.5,30.35,WSW,247,0.0,0.0,82,0.00,,,0.00,WUHU21623XXSP,2013-01-21 19:51:00,
2013-01-21 11:55:00,25.0,20.5,30.34,WSW,247,0.0,0.0,83,0.00,,,0.00,WUHU21623XXSP,2013-01-21 19:55:00,
2013-01-21 12:11:00,25.0,20.5,30.34,WSW,247,0.0,0.0,83,0.00,,,0.00,WUHU21623XXSP,2013-01-21 20:11:00,
2013-01-21 12:16:00,22.8,18.1,30.33,WSW,247,0.0,0.0,82,0.00,,,0.00,WUHU21623XXSP,2013-01-21 20:16:00,
2013-01-21 12:21:00,22.5,18.0,30.33,WSW,247,0.0,0.0,83,0.00,,,0.00,WUHU21623XXSP,2013-01-21 20:21:00,
2013-01-21 12:26:00,22.8,18.9,30.33,WSW,247,0.0,0.0,85,0.00,,,0.00,WUHU21623XXSP,2013-01-21 20:26:00,
2013-01-21 12:31:00,23.7,19.8,30.33,WSW,247,0.0,0.0,85,0.00,,,0.00,WUHU21623XXSP,2013-01-21 20:31:00,
2013-01-21 12:36:00,24.1,19.9,30.32,WSW,247,0.0,0.0,84,0.00,,,0.00,WUHU21623XXSP,2013-01-21 20:36:00,
2013-01-21 12:41:00,23.5,19.3,30.33,WSW,247,0.0,0.0,84,0.00,,,0.00,WUHU21623XXSP,2013-01-21 20:41:00,
2013-01-21 12:46:00,23.2,19.0,30.33,WSW,247,0.0,0.0,84,0.00,,,0.00,WUHU21623XXSP,2013-01-21 20:46:00,
2013-01-21 12:51:00,23.9,19.7,30.32,WSW,247,0.0,0.0,84,0.00,,,0.00,WUHU21623XXSP,2013-01-21 20:51:00,
2013-01-21 12:56:00,25.2,21.2,30.33,WSW,247,0.0,0.0,85,0.00,,,0.00,WUHU21623XXSP,2013-01-21 20:56:00,
2013-01-21 13:01:00,25.9,21.7,30.33,WSW,247,0.0,0.0,84,0.00,,,0.00,WUHU21623XXSP,2013-01-21 21:01:00,
2013-01-21 13:06:00,27.1,22.8,30.33,WSW,247,0.0,0.0,84,0.00,,,0.00,WUHU21623XXSP,2013-01-21 21:06:00,
2013-01-21 13:11:00,27.7,22.9,30.32,WSW,247,0.0,0.0,82,0.00,,,0.00,WUHU21623XXSP,2013-01-21 21:11:00,
2013-01-21 13:16:00,26.6,21.5,30.32,WSW,247,0.0,0.0,81,0.00,,,0.00,WUHU21623XXSP,2013-01-21 21:16:00,
2013-01-21 13:21:00,25.5,20.7,30.31,WSW,247,0.0,0.0,82,0.00,,,0.00,WUHU21623XXSP,2013-01-21 21:21:00,
2013-01-21 13:23:00,25.5,21.0,30.31,WSW,247,0.0,0.0,83,0.00,,,0.00,WUHU21623XXSP,2013-01-21 21:23:00,
2013-01-21 13:26:00,25.5,21.0,30.31,WSW,247,0.0,0.0,83,0.00,,,0.00,WUHU21623XXSP,2013-01-21 21:26:00,
2013-01-21 13:31:00,26.6,22.3,30.31,WSW,247,0.0,0.0,84,0.00,,,0.00,WUHU21623XXSP,2013-01-21 21:31:00,
2013-01-21 13:36:00,28.2,23.6,30.31,WSW,247,0.0,0.0,83,0.00,,,0.00,WUHU21623XXSP,2013-01-21 21:36:00,
2013-01-21 13:41:00,28.2,23.3,30.30,WSW,247,0.0,0.0,82,0.00,,,0.00,WUHU21623XXSP,2013-01-21 21:41:00,
2013-01-21 13:46:00,28.6,23.7,30.30,WSW,247,0.0,0.0,82,0.00,,,0.00,WUHU21623XXSP,2013-01-21 21:46:00,
2013-01-21 13:51:00,28.2,23.3,30.30,WSW,247,0.0,0.0,82,0.00,,,0.00,WUHU21623XXSP,2013-01-21 21:51:00,
2013-01-21 13:56:00,28.9,24.0,30.30,WSW,247,0.0,0.0,82,0.00,,,0.00,WUHU21623XXSP,2013-01-21 21:56:00,
2013-01-21 14:01:00,28.9,24.0,30.30,WSW,247,0.0,0.0,82,0.00,,,0.00,WUHU21623XXSP,2013-01-21 22:01:00,
2013-01-21 14:06:00,28.2,23.1,30.30,West,270,0.0,0.0,81,0.00,,,0.00,WUHU21623XXSP,2013-01-21 22:06:00,
2013-01-21 14:11:00,27.5,22.7,30.30,West,270,0.0,0.0,82,0.00,,,0.00,WUHU21623XXSP,2013-01-21 22:11:00,
2013-01-21 14:16:00,27.5,22.7,30.30,West,270,0.0,0.0,82,0.00,,,0.00,WUHU21623XXSP,2013-01-21 22:16:00,
2013-01-21 14:21:00,28.0,23.4,30.29,West,270,0.0,0.0,83,0.00,,,0.00,WUHU21623XXSP,2013-01-21 22:21:00,
2013-01-21 14:26:00,28.0,23.2,30.30,West,270,0.0,0.0,82,0.00,,,0.00,WUHU21623XXSP,2013-01-21 22:26:00,
2013-01-21 14:31:00,28.0,23.4,30.30,West,270,0.0,0.0,83,0.00,,,0.00,WUHU21623XXSP,2013-01-21 22:31:00,
2013-01-21 14:36:00,28.6,24.0,30.29,West,270,0.0,0.0,83,0.00,,,0.00,WUHU21623XXSP,2013-01-21 22:36:00,
2013-01-21 14:41:00,28.2,23.3,30.29,West,270,0.0,0.0,82,0.00,,,0.00,WUHU21623XXSP,2013-01-21 22:41:00,
2013-01-21 14:46:00,28.2,23.3,30.29,West,270,0.0,0.0,82,0.00,,,0.00,WUHU21623XXSP,2013-01-21 22:46:00,
2013-01-21 14:51:00,28.4,23.5,30.29,West,270,0.0,0.0,82,0.00,,,0.00,WUHU21623XXSP,2013-01-21 22:51:00,
2013-01-21 14:56:00,28.0,23.2,30.29,West,270,0.0,0.0,82,0.00,,,0.00,WUHU21623XXSP,2013-01-21 22:56:00,
2013-01-21 15:01:00,27.1,22.3,30.29,West,270,0.0,0.0,82,0.00,,,0.00,WUHU21623XXSP,2013-01-21 23:01:00,
2013-01-21 15:06:00,25.9,21.1,30.29,SW,225,0.0,0.0,82,0.00,,,0.00,WUHU21623XXSP,2013-01-21 23:06:00,
2013-01-21 15:11:00,25.0,20.5,30.29,SSW,202,0.0,0.0,83,0.00,,,0.00,WUHU21623XXSP,2013-01-21 23:11:00,
2013-01-21 15:16:00,24.4,19.9,30.29,SSW,202,0.0,0.0,83,0.00,,,0.00,WUHU21623XXSP,2013-01-21 23:16:00,
2013-01-21 15:21:00,23.9,19.7,30.29,SSW,202,0.0,0.0,84,0.00,,,0.00,WUHU21623XXSP,2013-01-21 23:21:00,
2013-01-21 15:26:00,23.7,19.5,30.29,SSW,202,0.0,0.0,84,0.00,,,0.00,WUHU21623XXSP,2013-01-21 23:26:00,
2013-01-21 15:31:00,23.5,19.6,30.29,SSW,202,0.0,0.0,85,0.00,,,0.00,WUHU21623XXSP,2013-01-21 23:31:00,
2013-01-21 15:36:00,23.4,19.5,30.29,SSW,202,0.0,0.0,85,0.00,,,0.00,WUHU21623XXSP,2013-01-21 23:36:00,
2013-01-21 15:41:00,23.2,19.5,30.29,SSW,202,0.0,0.0,86,0.00,,,0.00,WUHU21623XXSP,2013-01-21 23:41:00,
2013-01-21 15:46:00,23.4,19.7,30.29,SSW,202,0.0,0.0,86,0.00,,,0.00,WUHU21623XXSP,2013-01-21 23:46:00,
2013-01-21 15:51:00,23.4,19.7,30.29,SSW,202,0.0,0.0,86,0.00,,,0.00,WUHU21623XXSP,2013-01-21 23:51:00,
2013-01-21 15:56:00,23.0,19.3,30.29,SSW,202,0.0,0.0,86,0.00,,,0.00,WUHU21623XXSP,2013-01-21 23:56:00,
2013-01-21 16:01:00,22.6,19.2,30.29,SSW,202,0.0,0.0,87,0.00,,,0.00,WUHU21623XXSP,2013-01-22 00:01:00,
2013-01-21 16:06:00,22.3,18.9,30.29,SSW,202,0.0,0.0,87,0.00,,,0.00,WUHU21623XXSP,2013-01-22 00:06:00,
2013-01-21 16:11:00,21.7,18.3,30.29,SSW,202,0.0,0.0,87,0.00,,,0.00,WUHU21623XXSP,2013-01-22 00:11:00,
2013-01-21 16:16:00,21.4,17.8,30.29,SSW,202,0.0,0.0,86,0.00,,,0.00,WUHU21623XXSP,2013-01-22 00:16:00,
2013-01-21 16:21:00,20.5,16.9,30.29,SSW,202,0.0,0.0,86,0.00,,,0.00,WUHU21623XXSP,2013-01-22 00:21:00,
2013-01-21 16:26:00,19.6,16.0,30.29,SSW,202,0.0,0.0,86,0.00,,,0.00,WUHU21623XXSP,2013-01-22 00:26:00,
2013-01-21 16:31:00,19.2,15.6,30.28,SSW,202,0.0,0.0,86,0.00,,,0.00,WUHU21623XXSP,2013-01-22 00:31:00,
2013-01-21 16:36:00,18.7,15.1,30.28,SSW,202,0.0,0.0,86,0.00,,,0.00,WUHU21623XXSP,2013-01-22 00:36:00,
2013-01-21 16:41:00,18.1,14.8,30.28,SSW,202,0.0,0.0,87,0.00,,,0.00,WUHU21623XXSP,2013-01-22 00:41:00,
2013-01-21 16:46:00,17.8,14.5,30.28,SSW,202,0.0,0.0,87,0.00,,,0.00,WUHU21623XXSP,2013-01-22 00:46:00,
2013-01-21 16:51:00,17.2,13.9,30.28,SSW,202,0.0,0.0,87,0.00,,,0.00,WUHU21623XXSP,2013-01-22 00:51:00,
2013-01-21 16:56:00,16.7,13.4,30.28,SSW,202,0.0,0.0,87,0.00,,,0.00,WUHU21623XXSP,2013-01-22 00:56:00,
2013-01-21 17:01:00,16.2,12.9,30.28,SSW,202,0.0,0.0,87,0.00,,,0.00,WUHU21623XXSP,2013-01-22 01:01:00,
2013-01-21 17:06:00,15.6,12.3,30.28,SSW,202,0.0,0.0,87,0.00,,,0.00,WUHU21623XXSP,2013-01-22 01:06:00,
2013-01-21 17:11:00,15.1,11.8,30.28,West,270,0.0,0.0,87,0.00,,,0.00,WUHU21623XXSP,2013-01-22 01:11:00,
2013-01-21 17:16:00,14.5,11.2,30.28,West,270,0.0,0.0,87,0.00,,,0.00,WUHU21623XXSP,2013-01-22 01:16:00,
2013-01-21 17:21:00,14.2,11.0,30.28,West,270,0.0,0.0,87,0.00,,,0.00,WUHU21623XXSP,2013-01-22 01:21:00,
2013-01-21 17:26:00,13.8,10.6,30.28,West,270,0.0,0.0,87,0.00,,,0.00,WUHU21623XXSP,2013-01-22 01:26:00,
2013-01-21 17:31:00,12.7,9.5,30.28,West,270,0.0,0.0,87,0.00,,,0.00,WUHU21623XXSP,2013-01-22 01:31:00,
2013-01-21 17:36:00,12.0,8.8,30.28,West,270,0.0,0.0,87,0.00,,,0.00,WUHU21623XXSP,2013-01-22 01:36:00,
2013-01-21 17:41:00,12.0,9.0,30.28,West,270,0.0,0.0,88,0.00,,,0.00,WUHU21623XXSP,2013-01-22 01:41:00,
2013-01-21 17:46:00,12.0,9.0,30.28,West,270,0.0,0.0,88,0.00,,,0.00,WUHU21623XXSP,2013-01-22 01:46:00,
2013-01-21 17:51:00,12.0,9.0,30.28,West,270,0.0,0.0,88,0.00,,,0.00,WUHU21623XXSP,2013-01-22 01:51:00,
2013-01-21 17:53:00,11.8,8.8,30.28,West,270,0.0,0.0,88,0.00,,,0.00,WUHU21623XXSP,2013-01-22 01:53:00,
2013-01-21 17:59:00,11.3,8.3,30.28,West,270,0.0,0.0,88,0.00,,,0.00,WUHU21623XXSP,2013-01-22 01:59:00,
2013-01-21 18:04:00,11.1,8.1,30.28,SSW,202,0.0,0.0,88,0.00,,,0.00,WUHU21623XXSP,2013-01-22 02:04:00,
2013-01-21 18:10:00,11.5,9.0,30.28,South,180,0.0,0.0,90,0.00,,,0.00,WUHU21623XXSP,2013-01-22 02:10:00,
2013-01-21 18:25:00,12.0,9.5,30.29,South,180,0.0,0.0,90,0.00,,,0.00,WUHU21623XXSP,2013-01-22 02:25:00,
2013-01-21 18:30:00,10.2,7.5,30.29,SE,135,0.0,0.0,89,0.00,,,0.00,WUHU21623XXSP,2013-01-22 02:30:00,
2013-01-21 18:35:00,9.7,7.0,30.29,SE,135,0.0,0.0,89,0.00,,,0.00,WUHU21623XXSP,2013-01-22 02:35:00,
2013-01-21 18:40:00,9.5,6.8,30.29,SE,135,0.0,0.0,89,0.00,,,0.00,WUHU21623XXSP,2013-01-22 02:40:00,
2013-01-21 18:45:00,9.1,6.4,30.29,SE,135,0.0,0.0,89,0.00,,,0.00,WUHU21623XXSP,2013-01-22 02:45:00,
2013-01-21 18:50:00,9.1,6.4,30.29,SE,135,0.0,0.0,89,0.00,,,0.00,WUHU21623XXSP,2013-01-22 02:50:00,
2013-01-21 18:55:00,9.1,6.4,30.28,SE,135,0.0,0.0,89,0.00,,,0.00,WUHU21623XXSP,2013-01-22 02:55:00,
2013-01-21 19:00:00,9.0,6.3,30.29,SE,135,0.0,0.0,89,0.00,,,0.00,WUHU21623XXSP,2013-01-22 03:00:00,
2013-01-21 19:05:00,8.8,6.1,30.29,SE,135,0.0,0.0,89,0.00,,,0.00,WUHU21623XXSP,2013-01-22 03:05:00,
2013-01-21 19:10:00,8.8,6.1,30.29,SE,135,0.0,0.0,89,0.00,,,0.00,WUHU21623XXSP,2013-01-22 03:10:00,
2013-01-21 19:15:00,8.8,6.1,30.29,SE,135,0.0,0.0,89,0.00,,,0.00,WUHU21623XXSP,2013-01-22 03:15:00,
2013-01-21 19:20:00,8.8,6.1,30.29,SE,135,0.0,0.0,89,0.00,,,0.00,WUHU21623XXSP,2013-01-22 03:20:00,
2013-01-21 19:25:00,8.8,6.1,30.29,SE,135,0.0,0.0,89,0.00,,,0.00,WUHU21623XXSP,2013-01-22 03:25:00,
2013-01-21 19:30:00,8.4,5.7,30.29,SE,135,0.0,0.0,89,0.00,,,0.00,WUHU21623XXSP,2013-01-22 03:30:00,
2013-01-21 19:35:00,8.4,5.7,30.29,SE,135,0.0,0.0,89,0.00,,,0.00,WUHU21623XXSP,2013-01-22 03:35:00,
2013-01-21 19:40:00,8.6,5.9,30.30,SE,135,0.0,0.0,89,0.00,,,0.00,WUHU21623XXSP,2013-01-22 03:40:00,
2013-01-21 19:45:00,8.8,6.1,30.30,SE,135,0.0,0.0,89,0.00,,,0.00,WUHU21623XXSP,2013-01-22 03:45:00,
2013-01-21 19:50:00,9.1,6.7,30.30,SE,135,0.0,0.0,90,0.00,,,0.00,WUHU21623XXSP,2013-01-22 03:50:00,
2013-01-21 19:55:00,9.1,6.7,30.30,SE,135,0.0,0.0,90,0.00,,,0.00,WUHU21623XXSP,2013-01-22 03:55:00,
2013-01-21 20:00:00,9.0,6.6,30.30,SE,135,0.0,0.0,90,0.00,,,0.00,WUHU21623XXSP,2013-01-22 04:00:00,
2013-01-21 20:05:00,9.0,6.8,30.30,SE,135,0.0,0.0,91,0.00,,,0.00,WUHU21623XXSP,2013-01-22 04:05:00,
2013-01-21 20:10:00,9.3,7.1,30.30,SE,135,0.0,0.0,91,0.00,,,0.00,WUHU21623XXSP,2013-01-22 04:10:00,
2013-01-21 20:15:00,9.5,7.3,30.30,SE,135,0.0,0.0,91,0.00,,,0.00,WUHU21623XXSP,2013-01-22 04:15:00,
2013-01-21 20:20:00,9.5,7.1,30.30,SE,135,0.0,0.0,90,0.00,,,0.00,WUHU21623XXSP,2013-01-22 04:20:00,
2013-01-21 20:25:00,9.3,6.9,30.30,SE,135,0.0,0.0,90,0.00,,,0.00,WUHU21623XXSP,2013-01-22 04:25:00,
2013-01-21 20:30:00,8.6,6.2,30.30,SE,135,0.0,0.0,90,0.00,,,0.00,WUHU21623XXSP,2013-01-22 04:30:00,
2013-01-21 20:35:00,8.1,5.4,30.30,SE,135,0.0,0.0,89,0.00,,,0.00,WUHU21623XXSP,2013-01-22 04:35:00,
2013-01-21 20:40:00,7.3,4.6,30.30,SE,135,0.0,0.0,89,0.00,,,0.00,WUHU21623XXSP,2013-01-22 04:40:00,
2013-01-21 20:45:00,6.6,4.0,30.30,SE,135,0.0,0.0,89,0.00,,,0.00,WUHU21623XXSP,2013-01-22 04:45:00,
2013-01-21 20:50:00,6.4,3.8,30.30,SE,135,0.0,0.0,89,0.00,,,0.00,WUHU21623XXSP,2013-01-22 04:50:00,
2013-01-21 20:55:00,6.4,3.8,30.30,SE,135,0.0,0.0,89,0.00,,,0.00,WUHU21623XXSP,2013-01-22 04:55:00,
2013-01-21 21:00:00,6.6,4.0,30.30,SE,135,0.0,0.0,89,0.00,,,0.00,WUHU21623XXSP,2013-01-22 05:00:00,
2013-01-21 21:01:00,6.6,4.0,30.30,SE,135,0.0,0.0,89,0.00,,,0.00,WUHU21623XXSP,2013-01-22 05:01:00,
2013-01-21 21:06:00,6.6,4.2,30.30,SE,135,0.0,0.0,90,0.00,,,0.00,WUHU21623XXSP,2013-01-22 05:06:00,
2013-01-21 21:12:00,6.6,4.2,30.30,SE,135,0.0,0.0,90,0.00,,,0.00,WUHU21623XXSP,2013-01-22 05:12:00,
2013-01-21 21:17:00,6.6,4.2,30.30,SE,135,0.0,0.0,90,0.00,,,0.00,WUHU21623XXSP,2013-01-22 05:17:00,
2013-01-21 21:22:00,6.6,4.2,30.30,SE,135,0.0,0.0,90,0.00,,,0.00,WUHU21623XXSP,2013-01-22 05:22:00,
2013-01-21 21:27:00,6.6,4.2,30.30,SE,135,0.0,0.0,90,0.00,,,0.00,WUHU21623XXSP,2013-01-22 05:27:00,
2013-01-21 21:32:00,7.3,5.1,30.30,SE,135,0.0,0.0,91,0.00,,,0.00,WUHU21623XXSP,2013-01-22 05:32:00,
2013-01-21 21:37:00,7.3,5.1,30.30,SE,135,0.0,0.0,91,0.00,,,0.00,WUHU21623XXSP,2013-01-22 05:37:00,
2013-01-21 21:42:00,7.3,5.1,30.30,SE,135,0.0,0.0,91,0.00,,,0.00,WUHU21623XXSP,2013-01-22 05:42:00,
2013-01-21 21:47:00,7.3,5.1,30.30,SE,135,0.0,0.0,91,0.00,,,0.00,WUHU21623XXSP,2013-01-22 05:47:00,
2013-01-21 21:52:00,7.5,5.3,30.30,SE,135,0.0,0.0,91,0.00,,,0.00,WUHU21623XXSP,2013-01-22 05:52:00,
2013-01-21 21:57:00,7.9,5.7,30.29,SE,135,0.0,0.0,91,0.00,,,0.00,WUHU21623XXSP,2013-01-22 05:57:00,
2013-01-21 22:02:00,8.4,6.2,30.29,SE,135,0.0,0.0,91,0.00,,,0.00,WUHU21623XXSP,2013-01-22 06:02:00,
2013-01-21 22:07:00,8.6,6.4,30.30,SE,135,0.0,0.0,91,0.00,,,0.00,WUHU21623XXSP,2013-01-22 06:07:00,
2013-01-21 22:12:00,9.0,6.8,30.30,SE,135,0.0,0.0,91,0.00,,,0.00,WUHU21623XXSP,2013-01-22 06:12:00,
2013-01-21 22:17:00,9.1,6.9,30.30,SE,135,0.0,0.0,91,0.00,,,0.00,WUHU21623XXSP,2013-01-22 06:17:00,
2013-01-21 22:22:00,9.1,6.9,30.31,SE,135,0.0,0.0,91,0.00,,,0.00,WUHU21623XXSP,2013-01-22 06:22:00,
2013-01-21 22:27:00,9.1,6.9,30.30,SE,135,0.0,0.0,91,0.00,,,0.00,WUHU21623XXSP,2013-01-22 06:27:00,
2013-01-21 22:32:00,9.0,6.8,30.30,SE,135,0.0,0.0,91,0.00,,,0.00,WUHU21623XXSP,2013-01-22 06:32:00,
2013-01-21 22:37:00,9.0,6.8,30.30,SE,135,0.0,0.0,91,0.00,,,0.00,WUHU21623XXSP,2013-01-22 06:37:00,
2013-01-21 22:42:00,9.0,6.8,30.31,SE,135,0.0,0.0,91,0.00,,,0.00,WUHU21623XXSP,2013-01-22 06:42:00,
2013-01-21 22:47:00,8.8,6.6,30.31,SE,135,0.0,0.0,91,0.00,,,0.00,WUHU21623XXSP,2013-01-22 06:47:00,
2013-01-21 22:52:00,9.0,6.8,30.31,SE,135,0.0,0.0,91,0.00,,,0.00,WUHU21623XXSP,2013-01-22 06:52:00,
2013-01-21 22:57:00,9.1,6.9,30.31,SE,135,0.0,0.0,91,0.00,,,0.00,WUHU21623XXSP,2013-01-22 06:57:00,
2013-01-21 23:02:00,9.1,6.9,30.31,SE,135,0.0,0.0,91,0.00,,,0.00,WUHU21623XXSP,2013-01-22 07:02:00,
2013-01-21 23:07:00,9.1,6.9,30.31,SE,135,0.0,0.0,91,0.00,,,0.00,WUHU21623XXSP,2013-01-22 07:07:00,
2013-01-21 23:12:00,9.1,6.9,30.31,SE,135,0.0,0.0,91,0.00,,,0.00,WUHU21623XXSP,2013-01-22 07:12:00,
2013-01-21 23:17:00,9.1,6.9,30.30,SE,135,0.0,0.0,91,0.00,,,0.00,WUHU21623XXSP,2013-01-22 07:17:00,
2013-01-21 23:22:00,9.1,6.9,30.31,SE,135,0.0,0.0,91,0.00,,,0.00,WUHU21623XXSP,2013-01-22 07:22:00,
2013-01-21 23:27:00,9.1,6.9,30.31,SE,135,0.0,0.0,91,0.00,,,0.00,WUHU21623XXSP,2013-01-22 07:27:00,
2013-01-21 23:32:00,9.1,6.9,30.31,SE,135,0.0,0.0,91,0.00,,,0.00,WUHU21623XXSP,2013-01-22 07:32:00,
2013-01-21 23:37:00,9.3,7.1,30.31,SE,135,0.0,0.0,91,0.00,,,0.00,WUHU21623XXSP,2013-01-22 07:37:00,
2013-01-21 23:42:00,9.3,7.1,30.30,SE,135,0.0,0.0,91,0.00,,,0.00,WUHU21623XXSP,2013-01-22 07:42:00,
2013-01-21 23:47:00,9.1,6.9,30.30,SE,135,0.0,0.0,91,0.00,,,0.00,WUHU21623XXSP,2013-01-22 07:47:00,
2013-01-21 23:52:00,9.1,6.9,30.30,SE,135,0.0,0.0,91,0.00,,,0.00,WUHU21623XXSP,2013-01-22 07:52:00,
2013-01-21 23:57:00,9.1,6.9,30.30,SE,135,0.0,0.0,91,0.00,,,0.00,WUHU21623XXSP,2013-01-22 07:57:00,